Time,TemperatureF,DewpointF,PressureIn,WindDirection,WindDirectionDegrees,WindSpeedMPH,WindSpeedGustMPH,Humidity,HourlyPrecipIn,Conditions,Clouds,dailyrainin,SoftwareType,DateUTC
2013-03-26 00:00:00,33.0,32.5,29.65,WNW,296,1.0,7.0,98,0.00,,,0.00,VWS V14.01,2013-03-26 04:00:00,
2013-03-26 00:05:00,33.0,32.5,29.65,WNW,301,2.0,5.0,98,0.00,,,0.00,VWS V14.01,2013-03-26 04:05:00,
2013-03-26 00:10:00,32.9,32.4,29.65,WNW,283,1.0,8.0,98,0.00,,,0.00,VWS V14.01,2013-03-26 04:10:00,
2013-03-26 00:15:00,32.9,32.4,29.65,NW,319,2.0,4.0,98,0.00,,,0.00,VWS V14.01,2013-03-26 04:15:00,
2013-03-26 00:20:00,32.9,32.4,29.65,WNW,300,3.0,6.0,98,0.00,,,0.00,VWS V14.01,2013-03-26 04:20:00,
2013-03-26 00:25:00,32.9,32.4,29.65,West,280,4.0,7.0,98,0.00,,,0.00,VWS V14.01,2013-03-26 04:25:00,
2013-03-26 00:31:00,32.9,32.4,29.65,WNW,287,5.0,5.0,98,0.00,,,0.00,VWS V14.01,2013-03-26 04:31:00,
2013-03-26 00:36:00,32.9,32.4,29.65,WNW,288,4.0,5.0,98,0.00,,,0.00,VWS V14.01,2013-03-26 04:36:00,
2013-03-26 00:41:00,33.0,32.5,29.66,NW,310,5.0,6.0,98,0.01,,,0.01,VWS V14.01,2013-03-26 04:41:00,
2013-03-26 00:46:00,33.1,32.3,29.66,NW,312,3.0,5.0,97,0.01,,,0.01,VWS V14.01,2013-03-26 04:46:00,
2013-03-26 00:51:00,33.1,32.3,29.66,NW,324,4.0,7.0,97,0.01,,,0.01,VWS V14.01,2013-03-26 04:51:00,
2013-03-26 00:56:00,33.1,32.3,29.66,WNW,285,3.0,9.0,97,0.01,,,0.01,VWS V14.01,2013-03-26 04:56:00,
2013-03-26 01:01:00,33.1,32.3,29.66,WNW,300,2.0,9.0,97,0.01,,,0.01,VWS V14.01,2013-03-26 05:01:00,
2013-03-26 01:06:00,33.0,32.2,29.66,NNW,327,3.0,7.0,97,0.01,,,0.01,VWS V14.01,2013-03-26 05:06:00,
2013-03-26 01:11:00,32.9,32.1,29.66,NW,305,2.0,4.0,97,0.01,,,0.01,VWS V14.01,2013-03-26 05:11:00,
2013-03-26 01:16:00,32.8,32.0,29.66,NW,305,1.0,6.0,97,0.01,,,0.01,VWS V14.01,2013-03-26 05:16:00,
2013-03-26 01:21:00,32.8,32.0,29.67,West,281,1.0,2.0,97,0.01,,,0.01,VWS V14.01,2013-03-26 05:21:00,
2013-03-26 01:27:00,32.8,32.0,29.67,WNW,301,1.0,5.0,97,0.01,,,0.01,VWS V14.01,2013-03-26 05:27:00,
2013-03-26 01:32:00,32.8,32.0,29.67,NW,315,3.0,5.0,97,0.01,,,0.01,VWS V14.01,2013-03-26 05:32:00,
2013-03-26 01:37:00,32.7,31.9,29.67,WNW,285,1.0,3.0,97,0.01,,,0.01,VWS V14.01,2013-03-26 05:37:00,
2013-03-26 01:42:00,32.7,31.9,29.67,WNW,295,1.0,3.0,97,0.00,,,0.01,VWS V14.01,2013-03-26 05:42:00,
2013-03-26 01:47:00,32.7,31.9,29.67,WNW,293,0.0,1.0,97,0.00,,,0.01,VWS V14.01,2013-03-26 05:47:00,
2013-03-26 01:52:00,32.8,32.0,29.67,WNW,291,2.0,2.0,97,0.00,,,0.01,VWS V14.01,2013-03-26 05:52:00,
2013-03-26 01:57:00,32.8,32.0,29.67,WNW,283,1.0,3.0,97,0.00,,,0.01,VWS V14.01,2013-03-26 05:57:00,
2013-03-26 02:02:00,32.9,32.1,29.67,NW,324,2.0,3.0,97,0.00,,,0.01,VWS V14.01,2013-03-26 06:02:00,
2013-03-26 02:07:00,33.0,32.2,29.67,WNW,297,1.0,3.0,97,0.00,,,0.01,VWS V14.01,2013-03-26 06:07:00,
2013-03-26 02:12:00,33.1,32.3,29.68,WNW,298,1.0,3.0,97,0.00,,,0.01,VWS V14.01,2013-03-26 06:12:00,
2013-03-26 02:17:00,33.1,32.3,29.68,NW,311,0.0,4.0,97,0.00,,,0.01,VWS V14.01,2013-03-26 06:17:00,
2013-03-26 02:22:00,33.1,32.3,29.68,WNW,289,0.0,2.0,97,0.00,,,0.01,VWS V14.01,2013-03-26 06:22:00,
2013-03-26 02:28:00,33.1,32.3,29.68,WNW,290,0.0,3.0,97,0.00,,,0.01,VWS V14.01,2013-03-26 06:28:00,
2013-03-26 02:33:00,33.2,32.4,29.68,NW,310,2.0,3.0,97,0.00,,,0.01,VWS V14.01,2013-03-26 06:33:00,
2013-03-26 02:38:00,33.2,32.2,29.68,NW,312,1.0,2.0,96,0.00,,,0.01,VWS V14.01,2013-03-26 06:38:00,
2013-03-26 02:43:00,33.3,32.3,29.68,WNW,300,1.0,5.0,96,0.00,,,0.01,VWS V14.01,2013-03-26 06:43:00,
2013-03-26 02:48:00,33.3,32.3,29.68,West,281,2.0,4.0,96,0.00,,,0.01,VWS V14.01,2013-03-26 06:48:00,
2013-03-26 02:53:00,33.3,32.3,29.68,West,277,0.0,2.0,96,0.00,,,0.01,VWS V14.01,2013-03-26 06:53:00,
2013-03-26 02:58:00,33.2,32.2,29.68,WNW,285,0.0,3.0,96,0.00,,,0.01,VWS V14.01,2013-03-26 06:58:00,
2013-03-26 03:04:00,33.2,32.2,29.68,NW,319,2.0,2.0,96,0.00,,,0.01,VWS V14.01,2013-03-26 07:04:00,
2013-03-26 03:09:00,33.1,32.1,29.68,WNW,300,3.0,4.0,96,0.00,,,0.01,VWS V14.01,2013-03-26 07:09:00,
2013-03-26 03:14:00,33.1,32.1,29.68,WNW,295,1.0,5.0,96,0.00,,,0.01,VWS V14.01,2013-03-26 07:14:00,
2013-03-26 03:19:00,33.0,32.0,29.69,West,260,1.0,6.0,96,0.00,,,0.01,VWS V14.01,2013-03-26 07:19:00,
2013-03-26 03:24:00,33.0,32.0,29.69,WNW,296,2.0,4.0,96,0.00,,,0.01,VWS V14.01,2013-03-26 07:24:00,
2013-03-26 03:29:00,33.1,32.1,29.69,West,281,0.0,3.0,96,0.00,,,0.01,VWS V14.01,2013-03-26 07:29:00,
2013-03-26 03:34:00,33.1,32.1,29.69,WNW,299,0.0,4.0,96,0.00,,,0.01,VWS V14.01,2013-03-26 07:34:00,
2013-03-26 03:39:00,33.1,32.1,29.69,WNW,288,2.0,3.0,96,0.00,,,0.01,VWS V14.01,2013-03-26 07:39:00,
2013-03-26 03:44:00,33.1,31.8,29.69,West,260,1.0,2.0,95,0.00,,,0.01,VWS V14.01,2013-03-26 07:44:00,
2013-03-26 03:49:00,33.1,31.8,29.69,NW,305,2.0,2.0,95,0.00,,,0.01,VWS V14.01,2013-03-26 07:49:00,
2013-03-26 03:54:00,33.1,31.8,29.69,WNW,283,2.0,4.0,95,0.00,,,0.01,VWS V14.01,2013-03-26 07:54:00,
2013-03-26 03:59:00,33.1,31.8,29.69,WNW,287,1.0,4.0,95,0.00,,,0.01,VWS V14.01,2013-03-26 07:59:00,
2013-03-26 04:05:00,33.1,31.8,29.69,NW,308,3.0,3.0,95,0.00,,OVC100,0.01,VWS V14.01,2013-03-26 08:05:00,
2013-03-26 04:10:00,33.1,31.8,29.69,West,281,1.0,4.0,95,0.00,,OVC100,0.01,VWS V14.01,2013-03-26 08:10:00,
2013-03-26 04:15:00,33.1,31.8,29.69,WNW,292,1.0,3.0,95,0.00,,OVC100,0.01,VWS V14.01,2013-03-26 08:15:00,
2013-03-26 04:20:00,33.1,31.8,29.70,NW,308,1.0,4.0,95,0.00,,OVC100,0.01,VWS V14.01,2013-03-26 08:20:00,
2013-03-26 04:25:00,33.0,31.7,29.70,WNW,294,1.0,3.0,95,0.00,,OVC100,0.01,VWS V14.01,2013-03-26 08:25:00,
2013-03-26 04:30:00,33.0,31.7,29.70,WNW,302,1.0,4.0,95,0.00,,OVC100,0.01,VWS V14.01,2013-03-26 08:30:00,
2013-03-26 04:35:00,33.1,31.8,29.70,WNW,283,2.0,4.0,95,0.00,,OVC100,0.01,VWS V14.01,2013-03-26 08:35:00,
2013-03-26 04:40:00,33.1,31.8,29.70,WNW,294,2.0,3.0,95,0.00,,OVC100,0.01,VWS V14.01,2013-03-26 08:40:00,
2013-03-26 04:45:00,33.0,31.7,29.70,WNW,283,0.0,2.0,95,0.00,,OVC100,0.01,VWS V14.01,2013-03-26 08:45:00,
2013-03-26 04:50:00,32.9,31.6,29.70,WNW,295,1.0,3.0,95,0.00,,OVC100,0.01,VWS V14.01,2013-03-26 08:50:00,
2013-03-26 04:55:00,32.9,31.6,29.71,West,259,0.0,2.0,95,0.00,,OVC100,0.01,VWS V14.01,2013-03-26 08:55:00,
2013-03-26 05:00:00,32.8,31.5,29.70,West,276,1.0,3.0,95,0.00,,OVC100,0.01,VWS V14.01,2013-03-26 09:00:00,
2013-03-26 05:05:00,32.8,31.5,29.71,WNW,284,0.0,4.0,95,0.00,,OVC080,0.01,VWS V14.01,2013-03-26 09:05:00,
2013-03-26 05:10:00,32.8,31.5,29.71,WNW,290,0.0,4.0,95,0.00,,OVC080,0.01,VWS V14.01,2013-03-26 09:10:00,
2013-03-26 05:15:00,32.8,31.5,29.71,West,276,0.0,1.0,95,0.00,,OVC080,0.01,VWS V14.01,2013-03-26 09:15:00,
2013-03-26 05:20:00,32.7,31.4,29.71,WNW,283,0.0,1.0,95,0.00,,OVC080,0.01,VWS V14.01,2013-03-26 09:20:00,
2013-03-26 05:25:00,32.6,31.3,29.71,WNW,283,0.0,1.0,95,0.00,,OVC080,0.01,VWS V14.01,2013-03-26 09:25:00,
2013-03-26 05:30:00,32.6,31.3,29.72,WNW,283,0.0,3.0,95,0.00,,OVC080,0.01,VWS V14.01,2013-03-26 09:30:00,
2013-03-26 05:35:00,32.6,31.3,29.72,WNW,300,0.0,2.0,95,0.00,,OVC080,0.01,VWS V14.01,2013-03-26 09:35:00,
2013-03-26 05:40:00,32.6,31.3,29.72,West,281,0.0,3.0,95,0.00,,OVC080,0.01,VWS V14.01,2013-03-26 09:40:00,
2013-03-26 05:45:00,32.6,31.3,29.72,West,281,0.0,3.0,95,0.00,,OVC080,0.01,VWS V14.01,2013-03-26 09:45:00,
2013-03-26 05:50:00,32.5,31.2,29.72,West,277,0.0,2.0,95,0.00,,OVC080,0.01,VWS V14.01,2013-03-26 09:50:00,
2013-03-26 05:55:00,32.5,31.2,29.72,WNW,287,0.0,2.0,95,0.00,,OVC080,0.01,VWS V14.01,2013-03-26 09:55:00,
2013-03-26 06:00:00,32.4,31.1,29.73,WNW,288,0.0,2.0,95,0.00,,OVC080,0.01,VWS V14.01,2013-03-26 10:00:00,
2013-03-26 06:05:00,32.4,31.1,29.73,West,278,0.0,1.0,95,0.00,,OVC080,0.01,VWS V14.01,2013-03-26 10:05:00,
2013-03-26 06:10:00,32.4,31.1,29.73,West,281,1.0,2.0,95,0.00,,OVC080,0.01,VWS V14.01,2013-03-26 10:10:00,
2013-03-26 06:15:00,32.5,31.0,29.73,NW,316,3.0,3.0,94,0.00,,OVC080,0.01,VWS V14.01,2013-03-26 10:15:00,
2013-03-26 06:20:00,32.6,31.1,29.73,NW,309,3.0,4.0,94,0.00,,OVC080,0.01,VWS V14.01,2013-03-26 10:20:00,
2013-03-26 06:25:00,32.7,31.2,29.73,WNW,285,2.0,2.0,94,0.00,,OVC080,0.01,VWS V14.01,2013-03-26 10:25:00,
2013-03-26 06:30:00,32.8,31.0,29.74,West,281,1.0,2.0,93,0.00,,OVC080,0.01,VWS V14.01,2013-03-26 10:30:00,
2013-03-26 06:35:00,32.8,31.0,29.74,NW,311,1.0,1.0,93,0.00,,OVC080,0.01,VWS V14.01,2013-03-26 10:35:00,
2013-03-26 06:40:00,31.9,30.4,29.74,West,278,2.0,2.0,94,0.00,,OVC080,0.01,VWS V14.01,2013-03-26 10:40:00,
2013-03-26 06:45:00,31.9,30.4,29.74,West,278,2.0,2.0,94,0.00,,OVC080,0.01,VWS V14.01,2013-03-26 10:45:00,
2013-03-26 06:50:00,31.9,30.4,29.74,West,278,2.0,2.0,94,0.00,,OVC080,0.01,VWS V14.01,2013-03-26 10:50:00,
2013-03-26 06:55:00,31.9,30.4,29.74,West,278,2.0,2.0,94,0.00,,OVC080,0.01,VWS V14.01,2013-03-26 10:55:00,
2013-03-26 07:00:00,31.9,30.4,29.75,West,278,2.0,2.0,94,0.00,,OVC080,0.01,VWS V14.01,2013-03-26 11:00:00,
2013-03-26 07:05:00,31.9,30.4,29.75,West,278,2.0,2.0,94,0.00,,,0.01,VWS V14.01,2013-03-26 11:05:00,
2013-03-26 07:10:00,31.9,30.4,29.75,West,278,2.0,2.0,94,0.00,,,0.01,VWS V14.01,2013-03-26 11:10:00,
2013-03-26 07:15:00,31.9,30.4,29.75,West,278,2.0,2.0,94,0.00,,,0.01,VWS V14.01,2013-03-26 11:15:00,
2013-03-26 07:20:00,31.9,30.4,29.75,West,278,2.0,2.0,94,0.00,,,0.01,VWS V14.01,2013-03-26 11:20:00,
2013-03-26 07:25:00,31.9,30.4,29.76,West,278,2.0,2.0,94,0.00,,,0.01,VWS V14.01,2013-03-26 11:25:00,
2013-03-26 07:30:00,31.9,30.4,29.76,West,278,2.0,2.0,94,0.00,,,0.01,VWS V14.01,2013-03-26 11:30:00,
2013-03-26 07:35:00,32.3,30.5,29.76,West,281,0.0,1.0,93,0.00,,,0.01,VWS V14.01,2013-03-26 11:35:00,
2013-03-26 07:41:00,32.4,30.6,29.76,West,277,1.0,1.0,93,0.00,,,0.01,VWS V14.01,2013-03-26 11:41:00,
2013-03-26 07:46:00,32.4,30.6,29.77,WSW,252,0.0,1.0,93,0.00,,,0.01,VWS V14.01,2013-03-26 11:46:00,
2013-03-26 07:51:00,32.5,30.7,29.77,WSW,245,0.0,1.0,93,0.00,,,0.01,VWS V14.01,2013-03-26 11:51:00,
2013-03-26 07:56:00,32.6,30.8,29.77,West,269,0.0,1.0,93,0.00,,,0.01,VWS V14.01,2013-03-26 11:56:00,
2013-03-26 08:01:00,32.7,30.9,29.77,West,276,0.0,2.0,93,0.00,,,0.01,VWS V14.01,2013-03-26 12:01:00,
2013-03-26 08:06:00,32.7,30.9,29.77,West,281,0.0,2.0,93,0.00,,,0.01,VWS V14.01,2013-03-26 12:06:00,
2013-03-26 08:11:00,32.8,30.7,29.78,West,281,1.0,2.0,92,0.00,,,0.01,VWS V14.01,2013-03-26 12:11:00,
2013-03-26 08:16:00,32.9,31.1,29.78,NW,307,2.0,3.0,93,0.00,,,0.01,VWS V14.01,2013-03-26 12:16:00,
2013-03-26 08:21:00,33.0,30.9,29.78,WNW,300,3.0,3.0,92,0.00,,,0.01,VWS V14.01,2013-03-26 12:21:00,
2013-03-26 08:27:00,33.1,31.0,29.78,WNW,300,0.0,2.0,92,0.00,,,0.01,VWS V14.01,2013-03-26 12:27:00,
2013-03-26 08:32:00,33.3,31.2,29.78,WNW,288,3.0,3.0,92,0.00,,,0.01,VWS V14.01,2013-03-26 12:32:00,
2013-03-26 08:37:00,33.5,31.4,29.79,West,280,2.0,3.0,92,0.00,,,0.01,VWS V14.01,2013-03-26 12:37:00,
2013-03-26 08:42:00,33.7,31.4,29.79,West,280,3.0,4.0,91,0.00,,,0.01,VWS V14.01,2013-03-26 12:42:00,
2013-03-26 08:47:00,33.9,31.6,29.79,WNW,285,1.0,3.0,91,0.01,,,0.02,VWS V14.01,2013-03-26 12:47:00,
2013-03-26 08:52:00,34.2,31.9,29.79,West,273,0.0,2.0,91,0.01,,,0.02,VWS V14.01,2013-03-26 12:52:00,
2013-03-26 08:57:00,34.4,31.8,29.79,WNW,284,2.0,3.0,90,0.01,,,0.02,VWS V14.01,2013-03-26 12:57:00,
2013-03-26 09:02:00,34.5,31.9,29.79,WNW,295,0.0,3.0,90,0.01,,OVC085,0.02,VWS V14.01,2013-03-26 13:02:00,
2013-03-26 09:07:00,34.7,31.8,29.80,West,274,0.0,4.0,89,0.01,,OVC085,0.02,VWS V14.01,2013-03-26 13:07:00,
2013-03-26 09:12:00,34.9,32.0,29.79,WNW,301,3.0,3.0,89,0.01,,OVC085,0.02,VWS V14.01,2013-03-26 13:12:00,
2013-03-26 09:17:00,35.0,31.8,29.80,West,269,2.0,6.0,88,0.01,,OVC085,0.02,VWS V14.01,2013-03-26 13:17:00,
2013-03-26 09:22:00,35.2,32.0,29.80,West,281,1.0,4.0,88,0.01,,OVC085,0.02,VWS V14.01,2013-03-26 13:22:00,
2013-03-26 09:27:00,35.5,32.3,29.80,West,278,0.0,3.0,88,0.02,,OVC085,0.03,VWS V14.01,2013-03-26 13:27:00,
2013-03-26 09:32:00,35.7,32.2,29.80,WSW,255,4.0,4.0,87,0.02,,OVC085,0.03,VWS V14.01,2013-03-26 13:32:00,
2013-03-26 09:37:00,35.9,32.1,29.80,WNW,283,2.0,6.0,86,0.02,,OVC085,0.03,VWS V14.01,2013-03-26 13:37:00,
2013-03-26 09:43:00,36.1,32.0,29.80,West,276,5.0,9.0,85,0.02,,OVC085,0.03,VWS V14.01,2013-03-26 13:43:00,
2013-03-26 09:48:00,36.2,32.1,29.80,WNW,289,3.0,8.0,85,0.02,,OVC085,0.03,VWS V14.01,2013-03-26 13:48:00,
2013-03-26 09:53:00,36.3,32.2,29.80,NW,304,0.0,6.0,85,0.01,,OVC085,0.03,VWS V14.01,2013-03-26 13:53:00,
2013-03-26 09:58:00,36.5,32.4,29.80,WNW,301,3.0,4.0,85,0.02,,OVC085,0.04,VWS V14.01,2013-03-26 13:58:00,
2013-03-26 10:03:00,36.8,32.7,29.80,West,274,3.0,3.0,85,0.02,,OVC085,0.04,VWS V14.01,2013-03-26 14:03:00,
2013-03-26 10:08:00,37.1,32.7,29.80,West,269,0.0,3.0,84,0.02,,OVC085,0.04,VWS V14.01,2013-03-26 14:08:00,
2013-03-26 10:13:00,37.3,32.6,29.80,WNW,293,0.0,3.0,83,0.02,,OVC085,0.04,VWS V14.01,2013-03-26 14:13:00,
2013-03-26 10:18:00,37.6,32.6,29.81,West,263,3.0,4.0,82,0.02,,OVC085,0.04,VWS V14.01,2013-03-26 14:18:00,
2013-03-26 10:23:00,37.8,33.1,29.81,WNW,290,4.0,4.0,83,0.03,,OVC085,0.05,VWS V14.01,2013-03-26 14:23:00,
2013-03-26 10:28:00,38.0,32.4,29.81,West,262,4.0,6.0,80,0.03,,OVC085,0.05,VWS V14.01,2013-03-26 14:28:00,
2013-03-26 10:33:00,38.4,32.5,29.81,WNW,295,4.0,6.0,79,0.03,,OVC085,0.06,VWS V14.01,2013-03-26 14:33:00,
2013-03-26 10:38:00,38.7,32.8,29.81,WNW,289,2.0,3.0,79,0.03,,OVC085,0.06,VWS V14.01,2013-03-26 14:38:00,
2013-03-26 10:43:00,38.8,32.2,29.81,NW,304,8.0,11.0,77,0.03,,OVC085,0.06,VWS V14.01,2013-03-26 14:43:00,
2013-03-26 10:48:00,39.1,32.5,29.81,NW,318,2.0,9.0,77,0.03,,OVC085,0.06,VWS V14.01,2013-03-26 14:48:00,
2013-03-26 10:53:00,39.4,32.5,29.81,WNW,300,5.0,10.0,76,0.04,,OVC085,0.07,VWS V14.01,2013-03-26 14:53:00,
2013-03-26 10:58:00,39.5,32.6,29.81,NW,308,6.0,9.0,76,0.04,,OVC085,0.07,VWS V14.01,2013-03-26 14:58:00,
2013-03-26 11:03:00,39.9,33.0,29.81,WNW,289,1.0,6.0,76,0.04,,OVC085,0.08,VWS V14.01,2013-03-26 15:03:00,
2013-03-26 11:08:00,40.0,32.4,29.81,WNW,285,5.0,12.0,74,0.04,,OVC085,0.08,VWS V14.01,2013-03-26 15:08:00,
2013-03-26 11:13:00,40.1,32.2,29.81,NW,312,5.0,9.0,73,0.05,,OVC085,0.09,VWS V14.01,2013-03-26 15:13:00,
2013-03-26 11:18:00,40.6,33.3,29.81,West,271,3.0,6.0,75,0.05,,OVC085,0.09,VWS V14.01,2013-03-26 15:18:00,
2013-03-26 11:23:00,40.9,32.9,29.81,West,274,4.0,9.0,73,0.05,,OVC085,0.10,VWS V14.01,2013-03-26 15:23:00,
2013-03-26 11:28:00,41.0,33.0,29.81,WNW,296,7.0,7.0,73,0.05,,OVC085,0.10,VWS V14.01,2013-03-26 15:28:00,
2013-03-26 11:33:00,41.4,33.1,29.81,WNW,302,7.0,8.0,72,0.06,,OVC085,0.11,VWS V14.01,2013-03-26 15:33:00,
2013-03-26 11:38:00,41.8,33.8,29.81,NW,319,3.0,5.0,73,0.05,,OVC085,0.11,VWS V14.01,2013-03-26 15:38:00,
2013-03-26 11:43:00,41.7,33.0,29.81,WNW,288,3.0,10.0,71,0.05,,OVC085,0.11,VWS V14.01,2013-03-26 15:43:00,
2013-03-26 11:49:00,42.0,33.3,29.81,NW,308,4.0,9.0,71,0.06,,OVC085,0.12,VWS V14.01,2013-03-26 15:49:00,
2013-03-26 11:54:00,42.3,33.6,29.81,WNW,302,5.0,12.0,71,0.05,,OVC085,0.12,VWS V14.01,2013-03-26 15:54:00,
2013-03-26 11:59:00,42.6,33.9,29.81,WNW,298,3.0,10.0,71,0.05,,OVC085,0.12,VWS V14.01,2013-03-26 15:59:00,
2013-03-26 12:04:00,42.5,33.4,29.81,West,273,10.0,11.0,70,0.06,,BKN085,0.13,VWS V14.01,2013-03-26 16:04:00,
2013-03-26 12:09:00,42.5,33.1,29.81,WNW,283,6.0,13.0,69,0.05,,BKN085,0.13,VWS V14.01,2013-03-26 16:09:00,
2013-03-26 12:14:00,43.3,34.2,29.81,WNW,288,8.0,8.0,70,0.04,,BKN085,0.13,VWS V14.01,2013-03-26 16:14:00,
2013-03-26 12:19:00,43.9,34.4,29.81,WNW,293,6.0,9.0,69,0.04,,BKN085,0.13,VWS V14.01,2013-03-26 16:19:00,
2013-03-26 12:24:00,43.9,34.0,29.81,West,264,5.0,7.0,68,0.04,,BKN085,0.13,VWS V14.01,2013-03-26 16:24:00,
2013-03-26 12:29:00,43.7,33.1,29.81,WNW,297,7.0,12.0,66,0.03,,BKN085,0.13,VWS V14.01,2013-03-26 16:29:00,
2013-03-26 12:34:00,43.4,33.6,29.81,NW,314,8.0,8.0,68,0.03,,BKN085,0.13,VWS V14.01,2013-03-26 16:34:00,
2013-03-26 12:39:00,43.8,34.3,29.81,WNW,293,2.0,7.0,69,0.02,,BKN085,0.13,VWS V14.01,2013-03-26 16:39:00,
2013-03-26 12:44:00,43.9,33.7,29.80,WNW,303,3.0,8.0,67,0.02,,BKN085,0.13,VWS V14.01,2013-03-26 16:44:00,
2013-03-26 12:49:00,43.6,33.4,29.80,NW,318,4.0,7.0,67,0.02,,BKN085,0.13,VWS V14.01,2013-03-26 16:49:00,
2013-03-26 12:54:00,43.4,33.2,29.81,West,264,7.0,9.0,67,0.01,,BKN085,0.13,VWS V14.01,2013-03-26 16:54:00,
2013-03-26 12:59:00,44.0,33.4,29.81,NW,307,3.0,8.0,66,0.01,,BKN085,0.13,VWS V14.01,2013-03-26 16:59:00,
2013-03-26 13:04:00,44.3,33.7,29.81,WNW,284,2.0,8.0,66,0.01,,CLR,0.13,VWS V14.01,2013-03-26 17:04:00,
2013-03-26 13:10:00,44.2,33.6,29.81,WNW,303,4.0,12.0,66,0.00,,CLR,0.13,VWS V14.01,2013-03-26 17:10:00,
2013-03-26 13:15:00,44.3,32.9,29.81,WNW,295,3.0,9.0,64,0.00,,CLR,0.13,VWS V14.01,2013-03-26 17:15:00,
2013-03-26 13:20:00,45.4,34.0,29.81,NNW,340,5.0,7.0,64,0.00,,CLR,0.13,VWS V14.01,2013-03-26 17:20:00,
2013-03-26 13:25:00,46.1,34.6,29.80,WNW,294,5.0,6.0,64,0.00,,CLR,0.13,VWS V14.01,2013-03-26 17:25:00,
2013-03-26 13:30:00,46.0,32.5,29.80,West,271,7.0,11.0,59,0.00,,CLR,0.13,VWS V14.01,2013-03-26 17:30:00,
2013-03-26 13:35:00,45.8,31.9,29.80,West,269,2.0,4.0,58,0.00,,CLR,0.13,VWS V14.01,2013-03-26 17:35:00,
2013-03-26 13:40:00,45.9,32.4,29.80,West,270,3.0,4.0,59,0.00,,CLR,0.13,VWS V14.01,2013-03-26 17:40:00,
2013-03-26 13:45:00,46.1,32.2,29.80,WNW,296,7.0,10.0,58,0.00,,CLR,0.13,VWS V14.01,2013-03-26 17:45:00,
2013-03-26 13:50:00,45.7,31.4,29.80,NW,309,9.0,9.0,57,0.00,,CLR,0.13,VWS V14.01,2013-03-26 17:50:00,
2013-03-26 13:55:00,46.6,32.6,29.80,WNW,295,7.0,8.0,58,0.00,,CLR,0.13,VWS V14.01,2013-03-26 17:55:00,
2013-03-26 14:00:00,46.2,30.9,29.80,NNW,347,7.0,7.0,55,0.00,,CLR,0.13,VWS V14.01,2013-03-26 18:00:00,
2013-03-26 14:05:00,46.5,31.7,29.80,West,278,5.0,10.0,56,0.00,,BKN065,0.13,VWS V14.01,2013-03-26 18:05:00,
2013-03-26 14:10:00,46.0,30.3,29.80,WNW,288,4.0,6.0,54,0.00,,BKN065,0.13,VWS V14.01,2013-03-26 18:10:00,
2013-03-26 14:16:00,45.9,30.7,29.80,WNW,288,4.0,10.0,55,0.00,,BKN065,0.13,VWS V14.01,2013-03-26 18:16:00,
2013-03-26 14:21:00,45.9,29.8,29.80,WNW,294,7.0,7.0,53,0.00,,BKN065,0.13,VWS V14.01,2013-03-26 18:21:00,
2013-03-26 14:26:00,46.6,31.3,29.80,WNW,284,9.0,11.0,55,0.00,,BKN065,0.13,VWS V14.01,2013-03-26 18:26:00,
2013-03-26 14:31:00,47.5,29.8,29.80,North,349,4.0,14.0,50,0.00,,BKN065,0.13,VWS V14.01,2013-03-26 18:31:00,
2013-03-26 14:36:00,47.5,29.8,29.80,NW,305,7.0,7.0,50,0.00,,BKN065,0.13,VWS V14.01,2013-03-26 18:36:00,
2013-03-26 14:41:00,46.9,28.2,29.79,West,270,4.0,8.0,48,0.00,,BKN065,0.13,VWS V14.01,2013-03-26 18:41:00,
2013-03-26 14:46:00,46.7,29.5,29.79,WNW,285,3.0,7.0,51,0.00,,BKN065,0.13,VWS V14.01,2013-03-26 18:46:00,
2013-03-26 14:51:00,46.7,29.5,29.79,NW,311,5.0,8.0,51,0.00,,BKN065,0.13,VWS V14.01,2013-03-26 18:51:00,
2013-03-26 14:56:00,46.3,27.7,29.79,WNW,298,2.0,9.0,48,0.00,,BKN065,0.13,VWS V14.01,2013-03-26 18:56:00,
2013-03-26 15:01:00,46.5,26.9,29.79,WNW,294,6.0,9.0,46,0.00,,BKN065,0.13,VWS V14.01,2013-03-26 19:01:00,
2013-03-26 15:06:00,47.7,29.5,29.79,WNW,285,5.0,5.0,49,0.00,,BKN075,0.13,VWS V14.01,2013-03-26 19:06:00,
2013-03-26 15:12:00,48.7,29.4,29.79,NW,316,8.0,10.0,47,0.00,,BKN075,0.13,VWS V14.01,2013-03-26 19:12:00,
2013-03-26 15:17:00,48.3,28.5,29.79,WNW,283,6.0,9.0,46,0.00,,BKN075,0.13,VWS V14.01,2013-03-26 19:17:00,
2013-03-26 15:22:00,48.0,29.3,29.79,WNW,293,6.0,12.0,48,0.00,,BKN075,0.13,VWS V14.01,2013-03-26 19:22:00,
2013-03-26 15:27:00,48.3,30.0,29.79,WNW,295,4.0,8.0,49,0.00,,BKN075,0.13,VWS V14.01,2013-03-26 19:27:00,
2013-03-26 15:32:00,48.7,29.4,29.79,West,278,4.0,12.0,47,0.00,,BKN075,0.13,VWS V14.01,2013-03-26 19:32:00,
2013-03-26 15:37:00,48.9,30.1,29.78,West,274,3.0,8.0,48,0.00,,BKN075,0.13,VWS V14.01,2013-03-26 19:37:00,
2013-03-26 15:42:00,48.7,29.9,29.78,West,270,3.0,6.0,48,0.00,,BKN075,0.13,VWS V14.01,2013-03-26 19:42:00,
2013-03-26 15:47:00,48.3,30.5,29.78,WSW,255,4.0,5.0,50,0.00,,BKN075,0.13,VWS V14.01,2013-03-26 19:47:00,
2013-03-26 15:52:00,48.3,30.0,29.78,West,281,2.0,4.0,49,0.00,,BKN075,0.13,VWS V14.01,2013-03-26 19:52:00,
2013-03-26 15:57:00,47.9,28.7,29.78,West,281,2.0,5.0,47,0.00,,BKN075,0.13,VWS V14.01,2013-03-26 19:57:00,
2013-03-26 16:02:00,47.5,28.8,29.79,WNW,285,6.0,6.0,48,0.00,,BKN085,0.13,VWS V14.01,2013-03-26 20:02:00,
2013-03-26 16:07:00,47.2,29.0,29.79,NW,305,3.0,4.0,49,0.00,,BKN085,0.13,VWS V14.01,2013-03-26 20:07:00,
2013-03-26 16:12:00,46.9,28.8,29.79,WNW,290,2.0,5.0,49,0.00,,BKN085,0.13,VWS V14.01,2013-03-26 20:12:00,
2013-03-26 16:17:00,46.7,29.1,29.79,WNW,283,2.0,7.0,50,0.00,,BKN085,0.13,VWS V14.01,2013-03-26 20:17:00,
2013-03-26 16:22:00,46.6,30.4,29.79,WNW,300,9.0,11.0,53,0.00,,BKN085,0.13,VWS V14.01,2013-03-26 20:22:00,
2013-03-26 16:28:00,46.1,30.9,29.79,NW,307,7.0,12.0,55,0.00,,BKN085,0.13,VWS V14.01,2013-03-26 20:28:00,
2013-03-26 16:33:00,45.4,32.8,29.80,WNW,294,6.0,15.0,61,0.00,,BKN085,0.13,VWS V14.01,2013-03-26 20:33:00,
2013-03-26 16:38:00,44.6,32.8,29.80,West,276,8.0,18.0,63,0.00,,BKN085,0.13,VWS V14.01,2013-03-26 20:38:00,
2013-03-26 16:43:00,44.1,34.2,29.80,WNW,299,9.0,15.0,68,0.00,,BKN085,0.13,VWS V14.01,2013-03-26 20:43:00,
2013-03-26 16:48:00,43.6,33.8,29.80,WNW,295,7.0,14.0,68,0.00,,BKN085,0.13,VWS V14.01,2013-03-26 20:48:00,
2013-03-26 16:53:00,43.5,34.0,29.80,WNW,291,6.0,12.0,69,0.00,,BKN085,0.13,VWS V14.01,2013-03-26 20:53:00,
2013-03-26 16:58:00,43.5,34.7,29.80,West,278,5.0,9.0,71,0.00,,BKN085,0.13,VWS V14.01,2013-03-26 20:58:00,
2013-03-26 17:03:00,43.7,34.9,29.80,WNW,289,5.0,6.0,71,0.00,,OVC065,0.13,VWS V14.01,2013-03-26 21:03:00,
2013-03-26 17:08:00,43.6,34.5,29.80,WNW,294,6.0,13.0,70,0.00,,OVC065,0.13,VWS V14.01,2013-03-26 21:08:00,
2013-03-26 17:13:00,43.6,34.5,29.80,WNW,300,6.0,9.0,70,0.00,,OVC065,0.13,VWS V14.01,2013-03-26 21:13:00,
2013-03-26 17:18:00,43.8,34.3,29.80,WNW,298,6.0,13.0,69,0.00,,OVC065,0.13,VWS V14.01,2013-03-26 21:18:00,
2013-03-26 17:24:00,44.0,34.9,29.81,WNW,291,5.0,10.0,70,0.00,,OVC065,0.13,VWS V14.01,2013-03-26 21:24:00,
2013-03-26 17:29:00,44.1,35.0,29.81,NW,321,4.0,10.0,70,0.00,,OVC065,0.13,VWS V14.01,2013-03-26 21:29:00,
2013-03-26 17:34:00,44.5,34.6,29.81,WNW,282,3.0,10.0,68,0.00,,OVC065,0.13,VWS V14.01,2013-03-26 21:34:00,
2013-03-26 17:39:00,44.5,34.2,29.81,WNW,283,4.0,8.0,67,0.00,,OVC065,0.13,VWS V14.01,2013-03-26 21:39:00,
2013-03-26 17:44:00,44.3,34.4,29.81,West,276,2.0,9.0,68,0.00,,OVC065,0.13,VWS V14.01,2013-03-26 21:44:00,
2013-03-26 17:49:00,44.3,34.8,29.81,NW,319,4.0,11.0,69,0.00,,OVC065,0.13,VWS V14.01,2013-03-26 21:49:00,
2013-03-26 17:54:00,44.4,34.9,29.81,WNW,285,3.0,9.0,69,0.00,,OVC065,0.13,VWS V14.01,2013-03-26 21:54:00,
2013-03-26 17:59:00,44.5,35.3,29.81,West,269,2.0,9.0,70,0.00,,OVC065,0.13,VWS V14.01,2013-03-26 21:59:00,
2013-03-26 18:04:00,44.6,35.1,29.81,West,277,6.0,9.0,69,0.00,,OVC065,0.13,VWS V14.01,2013-03-26 22:04:00,
2013-03-26 18:09:00,44.4,35.2,29.82,NW,311,2.0,10.0,70,0.00,,OVC065,0.13,VWS V14.01,2013-03-26 22:09:00,
2013-03-26 18:14:00,44.1,35.0,29.82,WNW,285,2.0,8.0,70,0.00,,OVC065,0.13,VWS V14.01,2013-03-26 22:14:00,
2013-03-26 18:19:00,44.0,35.2,29.82,WNW,297,5.0,7.0,71,0.00,,OVC065,0.13,VWS V14.01,2013-03-26 22:19:00,
2013-03-26 18:24:00,43.9,35.1,29.82,West,273,0.0,7.0,71,0.00,,OVC065,0.13,VWS V14.01,2013-03-26 22:24:00,
2013-03-26 18:30:00,43.9,35.1,29.82,West,274,1.0,5.0,71,0.00,,OVC065,0.13,VWS V14.01,2013-03-26 22:30:00,
2013-03-26 18:35:00,43.7,35.3,29.82,West,273,1.0,5.0,72,0.00,,OVC100,0.13,VWS V14.01,2013-03-26 22:35:00,
2013-03-26 18:40:00,43.7,35.3,29.83,WNW,294,3.0,5.0,72,0.00,,OVC100,0.13,VWS V14.01,2013-03-26 22:40:00,
2013-03-26 18:45:00,43.6,35.2,29.83,WNW,293,0.0,5.0,72,0.00,,OVC100,0.13,VWS V14.01,2013-03-26 22:45:00,
2013-03-26 18:50:00,43.6,35.5,29.83,NW,325,2.0,3.0,73,0.00,,OVC100,0.13,VWS V14.01,2013-03-26 22:50:00,
2013-03-26 18:55:00,43.6,34.8,29.84,WNW,283,6.0,9.0,71,0.00,,OVC100,0.13,VWS V14.01,2013-03-26 22:55:00,
2013-03-26 19:00:00,43.4,34.3,29.84,WNW,293,3.0,8.0,70,0.00,,OVC100,0.13,VWS V14.01,2013-03-26 23:00:00,
2013-03-26 19:05:00,43.0,33.5,29.84,NW,323,1.0,2.0,69,0.00,,OVC110,0.13,VWS V14.01,2013-03-26 23:05:00,
2013-03-26 19:10:00,42.5,34.1,29.84,NW,318,2.0,2.0,72,0.00,,OVC110,0.13,VWS V14.01,2013-03-26 23:10:00,
2013-03-26 19:15:00,42.2,34.2,29.84,West,281,4.0,4.0,73,0.00,,OVC110,0.13,VWS V14.01,2013-03-26 23:15:00,
2013-03-26 19:20:00,42.0,33.6,29.84,NNW,333,2.0,2.0,72,0.00,,OVC110,0.13,VWS V14.01,2013-03-26 23:20:00,
2013-03-26 19:25:00,42.5,32.7,29.84,WNW,300,1.0,1.0,68,0.00,,OVC110,0.13,VWS V14.01,2013-03-26 23:25:00,
2013-03-26 19:30:00,42.4,34.0,29.84,West,264,0.0,1.0,72,0.00,,OVC110,0.13,VWS V14.01,2013-03-26 23:30:00,
2013-03-26 19:35:00,41.8,34.5,29.85,West,274,0.0,0.0,75,0.00,,OVC110,0.13,VWS V14.01,2013-03-26 23:35:00,
2013-03-26 19:40:00,41.5,34.5,29.85,West,262,0.0,1.0,76,0.00,,OVC110,0.13,VWS V14.01,2013-03-26 23:40:00,
2013-03-26 19:45:00,41.3,34.3,29.85,West,266,2.0,2.0,76,0.00,,OVC110,0.13,VWS V14.01,2013-03-26 23:45:00,
2013-03-26 19:50:00,41.1,34.8,29.86,WSW,240,2.0,4.0,78,0.00,,OVC110,0.13,VWS V14.01,2013-03-26 23:50:00,
2013-03-26 19:55:00,40.9,34.6,29.86,West,266,0.0,1.0,78,0.00,,OVC110,0.13,VWS V14.01,2013-03-26 23:55:00,
2013-03-26 20:00:00,41.0,34.3,29.86,West,281,0.0,0.0,77,0.00,,OVC110,0.13,VWS V14.01,2013-03-27 00:00:00,
2013-03-26 20:05:00,41.1,34.5,29.86,WNW,291,1.0,1.0,77,0.00,,OVC110,0.13,VWS V14.01,2013-03-27 00:05:00,
2013-03-26 20:10:00,41.1,34.1,29.86,West,276,0.0,3.0,76,0.00,,OVC110,0.13,VWS V14.01,2013-03-27 00:10:00,
2013-03-26 20:15:00,41.2,34.2,29.86,West,274,1.0,2.0,76,0.00,,OVC110,0.13,VWS V14.01,2013-03-27 00:15:00,
2013-03-26 20:21:00,41.2,34.5,29.87,North,351,1.0,3.0,77,0.00,,OVC110,0.13,VWS V14.01,2013-03-27 00:21:00,
2013-03-26 20:26:00,41.2,34.2,29.87,WNW,301,0.0,3.0,76,0.00,,OVC110,0.13,VWS V14.01,2013-03-27 00:26:00,
2013-03-26 20:31:00,41.1,34.1,29.87,WNW,287,0.0,2.0,76,0.00,,OVC110,0.13,VWS V14.01,2013-03-27 00:31:00,
2013-03-26 20:36:00,40.9,34.3,29.87,NW,317,4.0,4.0,77,0.00,,OVC110,0.13,VWS V14.01,2013-03-27 00:36:00,
2013-03-26 20:41:00,40.9,33.9,29.87,West,278,2.0,3.0,76,0.00,,OVC110,0.13,VWS V14.01,2013-03-27 00:41:00,
2013-03-26 20:46:00,41.0,34.0,29.87,WNW,285,1.0,4.0,76,0.00,,OVC110,0.13,VWS V14.01,2013-03-27 00:46:00,
2013-03-26 20:51:00,41.0,34.0,29.88,West,266,2.0,4.0,76,0.00,,OVC110,0.13,VWS V14.01,2013-03-27 00:51:00,
2013-03-26 20:56:00,40.9,33.9,29.88,WNW,288,0.0,3.0,76,0.00,,OVC110,0.13,VWS V14.01,2013-03-27 00:56:00,
2013-03-26 21:02:00,40.7,34.1,29.88,West,276,3.0,3.0,77,0.00,,OVC110,0.13,VWS V14.01,2013-03-27 01:02:00,
2013-03-26 21:07:00,40.4,34.1,29.88,West,280,2.0,3.0,78,0.00,,OVC100,0.13,VWS V14.01,2013-03-27 01:07:00,
2013-03-26 21:12:00,40.0,33.7,29.88,WSW,253,3.0,3.0,78,0.00,,OVC100,0.13,VWS V14.01,2013-03-27 01:12:00,
2013-03-26 21:17:00,39.7,33.4,29.88,West,273,1.0,3.0,78,0.00,,OVC100,0.13,VWS V14.01,2013-03-27 01:17:00,
2013-03-26 21:22:00,39.4,33.4,29.89,WNW,291,2.0,4.0,79,0.00,,OVC100,0.13,VWS V14.01,2013-03-27 01:22:00,
2013-03-26 21:27:00,39.4,33.4,29.89,WNW,289,3.0,4.0,79,0.00,,OVC100,0.13,VWS V14.01,2013-03-27 01:27:00,
2013-03-26 21:32:00,39.4,33.4,29.89,West,277,0.0,3.0,79,0.00,,OVC100,0.13,VWS V14.01,2013-03-27 01:32:00,
2013-03-26 21:37:00,39.4,33.4,29.89,NW,309,4.0,5.0,79,0.00,,OVC100,0.13,VWS V14.01,2013-03-27 01:37:00,
2013-03-26 21:42:00,39.4,33.4,29.89,West,280,1.0,3.0,79,0.00,,OVC100,0.13,VWS V14.01,2013-03-27 01:42:00,
2013-03-26 21:47:00,39.4,33.1,29.89,West,281,0.0,3.0,78,0.00,,OVC100,0.13,VWS V14.01,2013-03-27 01:47:00,
2013-03-26 21:52:00,39.4,33.1,29.90,WNW,302,3.0,5.0,78,0.00,,OVC100,0.13,VWS V14.01,2013-03-27 01:52:00,
2013-03-26 21:57:00,39.3,32.7,29.90,West,273,1.0,4.0,77,0.00,,OVC100,0.13,VWS V14.01,2013-03-27 01:57:00,
2013-03-26 22:02:00,39.3,32.7,29.90,WNW,283,0.0,3.0,77,0.00,,OVC100,0.13,VWS V14.01,2013-03-27 02:02:00,
2013-03-26 22:07:00,39.2,32.6,29.90,WNW,295,2.0,3.0,77,0.00,,OVC100,0.13,VWS V14.01,2013-03-27 02:07:00,
2013-03-26 22:12:00,39.1,32.5,29.91,WNW,291,1.0,3.0,77,0.00,,OVC100,0.13,VWS V14.01,2013-03-27 02:12:00,
2013-03-26 22:17:00,38.9,32.3,29.91,WNW,288,2.0,3.0,77,0.00,,OVC100,0.13,VWS V14.01,2013-03-27 02:17:00,
2013-03-26 22:23:00,38.9,32.3,29.91,WNW,287,1.0,2.0,77,0.00,,OVC100,0.13,VWS V14.01,2013-03-27 02:23:00,
2013-03-26 22:28:00,38.7,32.1,29.91,WNW,283,0.0,1.0,77,0.00,,OVC100,0.13,VWS V14.01,2013-03-27 02:28:00,
2013-03-26 22:33:00,38.3,32.0,29.91,WNW,283,0.0,0.0,78,0.00,,OVC100,0.13,VWS V14.01,2013-03-27 02:33:00,
2013-03-26 22:38:00,37.9,31.7,29.91,WNW,283,0.0,0.0,78,0.00,,OVC100,0.13,VWS V14.01,2013-03-27 02:38:00,
2013-03-26 22:43:00,37.4,31.5,29.92,North,3,0.0,1.0,79,0.00,,OVC100,0.13,VWS V14.01,2013-03-27 02:43:00,
2013-03-26 22:48:00,37.4,32.1,29.92,WNW,288,0.0,1.0,81,0.00,,OVC100,0.13,VWS V14.01,2013-03-27 02:48:00,
2013-03-26 22:53:00,37.3,31.7,29.92,WNW,288,0.0,0.0,80,0.00,,OVC100,0.13,VWS V14.01,2013-03-27 02:53:00,
2013-03-26 22:58:00,37.0,31.7,29.92,WNW,287,0.0,0.0,81,0.00,,OVC100,0.13,VWS V14.01,2013-03-27 02:58:00,
2013-03-26 23:03:00,36.8,31.5,29.92,WNW,287,0.0,0.0,81,0.00,,FEW060,0.13,VWS V14.01,2013-03-27 03:03:00,
2013-03-26 23:08:00,36.8,31.8,29.92,WNW,288,0.0,0.0,82,0.00,,FEW060,0.13,VWS V14.01,2013-03-27 03:08:00,
2013-03-26 23:13:00,36.6,31.3,29.92,WNW,288,0.0,0.0,81,0.00,,FEW060,0.13,VWS V14.01,2013-03-27 03:13:00,
2013-03-26 23:18:00,36.3,31.3,29.92,WNW,288,0.0,0.0,82,0.00,,FEW060,0.13,VWS V14.01,2013-03-27 03:18:00,
2013-03-26 23:23:00,36.4,31.4,29.92,WNW,283,0.0,2.0,82,0.00,,FEW060,0.13,VWS V14.01,2013-03-27 03:23:00,
2013-03-26 23:28:00,36.5,31.5,29.92,West,278,0.0,1.0,82,0.00,,FEW060,0.13,VWS V14.01,2013-03-27 03:28:00,
2013-03-26 23:33:00,36.4,31.4,29.92,West,263,0.0,1.0,82,0.00,,FEW060,0.13,VWS V14.01,2013-03-27 03:33:00,
2013-03-26 23:38:00,36.7,31.4,29.92,West,280,0.0,1.0,81,0.00,,FEW060,0.13,VWS V14.01,2013-03-27 03:38:00,
2013-03-26 23:44:00,36.9,31.3,29.93,WNW,298,1.0,2.0,80,0.00,,FEW060,0.13,VWS V14.01,2013-03-27 03:44:00,
2013-03-26 23:49:00,36.9,31.0,29.93,WNW,297,0.0,0.0,79,0.00,,FEW060,0.13,VWS V14.01,2013-03-27 03:49:00,
2013-03-26 23:54:00,36.4,30.8,29.93,WNW,285,0.0,0.0,80,0.00,,FEW060,0.13,VWS V14.01,2013-03-27 03:54:00,
2013-03-26 23:59:00,36.3,31.0,29.93,WNW,285,0.0,0.0,81,0.00,,FEW060,0.13,VWS V14.01,2013-03-27 03:59:00,